sat.trackr.live / text

‹ back to catalog

STARLINK-2611

NORAD 48364 · 2021-038M

PAYLOAD ACTIVE UNKNOWN

§ Identity

Operator
Country
US
Launch date
2021-05-04
Launch site
AFETR
Launch vehicle
Mass (kg)
RCS (m²)

Purposes: comms

External: N2YO · Heavens-Above · Gunter

§ Orbital elements

Epoch: 2026-09-12T03:53:19.735008Z

Period
94.01 min
Inclination
53.1587°
Eccentricity
0.0001435
Mean motion
15.31702293 rev/d
Perigee alt
469.8 km
Apogee alt
471.7 km
Semi-major
6,848.9 km
B*
6.5727e-5
RAAN
200.0022°
Arg perigee
89.9128°
Mean anomaly
270.2038°
Rev number
29,580

§ Raw data

STARLINK-26111 48364U 21038M   26255.16203397  .00001675  00000+0  65727-4 0  99992 48364  53.1587 200.0022 0001435  89.9128 270.2038 15.31702293295801

JSON: /api/v1/satellites/48364 · /tle

For live sub-satellite position, see the globe view (requires WebGL).

§ Visibility from observer

Set your observer location to see the next 7 days of passes ≥ 10°. The values pass through the URL so the page stays shareable.

No JS? Fill the form by hand. The geolocation button needs JavaScript.